Location: *
(48.8489°N, 2.3218°E)
Time: 13:11:31
(UTC+00:00)

IGS 5A - Pass Details

Date: 23 August 2019
Orbit: 582 x 590 km, 97.6° (Epoch: 21 September)

Event Time Altitude Azimuth Distance (km) Brightness Sun altitude
Exits shadow 21:07:53 51° 145° (SE) 751 3.5 -19.7°
Maximum altitude 21:08:52 75° 74° (ENE) 617 3.4 -19.8°
Drops below altitude 10° 21:13:03 10° 350° (N) 1,931 6.9 -20.3°
Sets 21:15:14 0° 349° (NNW) 2,837 8.0 -20.5°
